Location: Beckers Corners
(42.5484°N, 73.8110°W)
Time: 06:26:18
(UTC+00:00)

DIWATA 2B (PO-101) - Pass Details

Date: 12 December 2024
Orbit: 569 x 582 km, 98.1° (Epoch: 18 January)

Event Time Altitude Azimuth Distance (km) Brightness Sun altitude
Rises 22:45:17 0° 1° (N) 2,789 ? -14.7°
Reaches altitude 10° 22:47:41 10° 348° (NNW) 1,884 ? -15.1°
Maximum altitude 22:51:04 26° 292° (WNW) 1,150 ? -15.7°
Drops below altitude 10° 22:54:26 10° 236° (SW) 1,868 ? -16.3°
Sets 22:56:48 0° 223° (SW) 2,759 ? -16.7°
